2 Line ISS Keps 4-19

19 Apr
2007
19 Apr
'07
6:01 a.m.
ISS 1 25544U 98067A 07107.90220069 +.00017218 +00000-0 +98156-4 0 00390 2 25544 051.6326 055.3988 0015948 079.0030 352.9325 15.78901322481256
6073
Age (days ago)
6073
Last active (days ago)
0 comments
1 participants
participants (1)
-
Dave Larsen PhD